When you browse on this site, cookies collect data to enhance your experience and personalize the content and advertising you see.
Visit our Privacy Policy to learn more. By continuing to use the site, you agree to this use of cookies and data.
  • en France
  • Liste des pays
  • À 7 jours
  • Température de l'eau
  • Carte météo
  • Widgets météo
  • user-avatar
    Se connecter

    Météo par heure à Maun

    Ce jour, 26 Août, Lundi

    Heure Température Précipitation Vent Pression Humidité
    00:00 +15°C° 0 mm 2 m/s 684 mmHg 30%
    01:00 +15°C° 0 mm 2 m/s 684 mmHg 32%
    02:00 +15°C° 0 mm 1 m/s 684 mmHg 34%
    03:00 +14°C° 0 mm 1 m/s 684 mmHg 34%
    04:00 +14°C° 0 mm 2 m/s 684 mmHg 34%
    05:00 +14°C° 0 mm 2 m/s 683 mmHg 34%
    06:00 +15°C° 0 mm 1 m/s 684 mmHg 33%
    07:00 +16°C° 0 mm 1 m/s 685 mmHg 32%
    08:00 +16°C° 0 mm 1 m/s 686 mmHg 30%
    09:00 +20°C° 0 mm 2 m/s 686 mmHg 25%
    10:00 +25°C° 0 mm 2 m/s 686 mmHg 21%
    11:00 +28°C° 0 mm 3 m/s 687 mmHg 16%
    12:00 +30°C° 0 mm 2 m/s 686 mmHg 14%
    13:00 +31°C° 0 mm 2 m/s 685 mmHg 12%
    14:00 +34°C° 0 mm 2 m/s 685 mmHg 10%
    15:00 +32°C° 0 mm 1 m/s 684 mmHg 10%
    16:00 +32°C° 0 mm 1 m/s 684 mmHg 10%
    17:00 +31°C° 0 mm 1 m/s 683 mmHg 11%
    18:00 +29°C° 0 mm 1 m/s 683 mmHg 13%
    19:00 +26°C° 0 mm 1 m/s 683 mmHg 16%
    20:00 +23°C° 0 mm 1 m/s 683 mmHg 19%
    21:00 +22°C° 0 mm 1 m/s 683 mmHg 20%
    22:00 +21°C° 0 mm 1 m/s 683 mmHg 21%
    23:00 +20°C° 0 mm 1 m/s 683 mmHg 22%

    Demain, 27 Août, Mardi

    Heure Température Précipitation Vent Pression Humidité
    00:00 +19°C° 0 mm 1 m/s 683 mmHg 23%
    01:00 +19°C° 0 mm 1 m/s 682 mmHg 23%
    02:00 +18°C° 0 mm 1 m/s 682 mmHg 24%
    03:00 +16°C° 0 mm 1 m/s 682 mmHg 25%
    04:00 +16°C° 0 mm 1 m/s 682 mmHg 26%
    05:00 +14°C° 0 mm 0 m/s 682 mmHg 28%
    06:00 +16°C° 0 mm 1 m/s 682 mmHg 26%
    07:00 +19°C° 0 mm 1 m/s 683 mmHg 23%
    08:00 +20°C° 0 mm 1 m/s 684 mmHg 21%
    09:00 +24°C° 0 mm 2 m/s 684 mmHg 18%
    10:00 +28°C° 0 mm 2 m/s 685 mmHg 14%
    11:00 +33°C° 0 mm 3 m/s 685 mmHg 10%
    12:00 +35°C° 0 mm 2 m/s 685 mmHg 10%
    13:00 +36°C° 0 mm 1 m/s 684 mmHg 9%
    14:00 +37°C° 0 mm 1 m/s 684 mmHg 8%
    15:00 +36°C° 0 mm 1 m/s 683 mmHg 8%
    16:00 +35°C° 0 mm 1 m/s 683 mmHg 8%
    17:00 +32°C° 0 mm 0 m/s 682 mmHg 9%
    18:00 +31°C° 0 mm 1 m/s 682 mmHg 11%
    19:00 +28°C° 0 mm 1 m/s 682 mmHg 12%
    20:00 +25°C° 0 mm 2 m/s 682 mmHg 14%
    21:00 +24°C° 0 mm 2 m/s 682 mmHg 15%
    22:00 +23°C° 0 mm 2 m/s 682 mmHg 16%
    23:00 +21°C° 0 mm 2 m/s 682 mmHg 17%

    Après-demain, 28 Août, Mercredi

    Heure Température Précipitation Vent Pression Humidité
    00:00 +20°C° 0 mm 2 m/s 681 mmHg 19%
    01:00 +20°C° 0 mm 1 m/s 681 mmHg 20%
    02:00 +19°C° 0 mm 1 m/s 681 mmHg 21%
    03:00 +19°C° 0 mm 1 m/s 681 mmHg 22%
    04:00 +18°C° 0 mm 1 m/s 680 mmHg 23%
    05:00 +16°C° 0 mm 1 m/s 680 mmHg 24%
    06:00 +19°C° 0 mm 1 m/s 681 mmHg 23%
    07:00 +20°C° 0 mm 1 m/s 682 mmHg 21%
    08:00 +22°C° 0 mm 1 m/s 683 mmHg 19%
    09:00 +25°C° 0 mm 2 m/s 683 mmHg 16%
    10:00 +29°C° 0 mm 2 m/s 684 mmHg 13%
    11:00 +33°C° 0 mm 3 m/s 684 mmHg 10%
    12:00 +35°C° 0 mm 3 m/s 684 mmHg 9%
    13:00 +37°C° 0 mm 2 m/s 683 mmHg 8%
    14:00 +39°C° 0 mm 1 m/s 683 mmHg 7%
    15:00 +37°C° 0 mm 1 m/s 682 mmHg 8%
    16:00 +36°C° 0 mm 1 m/s 681 mmHg 8%
    17:00 +35°C° 0 mm 1 m/s 681 mmHg 8%
    18:00 +32°C° 0 mm 1 m/s 681 mmHg 10%
    19:00 +29°C° 0 mm 2 m/s 681 mmHg 11%
    20:00 +26°C° 0 mm 2 m/s 681 mmHg 13%
    21:00 +25°C° 0 mm 2 m/s 681 mmHg 14%
    22:00 +24°C° 0 mm 2 m/s 681 mmHg 15%
    23:00 +22°C° 0 mm 3 m/s 681 mmHg 16%

    29 Août, Jeudi

    Heure Température Précipitation Vent Pression Humidité
    00:00 +21°C° 0 mm 2 m/s 681 mmHg 17%
    01:00 +21°C° 0 mm 2 m/s 680 mmHg 18%
    02:00 +20°C° 0 mm 2 m/s 680 mmHg 18%
    03:00 +20°C° 0 mm 1 m/s 680 mmHg 19%
    04:00 +19°C° 0 mm 1 m/s 680 mmHg 20%
    05:00 +16°C° 0 mm 0 m/s 680 mmHg 22%
    06:00 +19°C° 0 mm 1 m/s 680 mmHg 20%
    07:00 +21°C° 0 mm 1 m/s 681 mmHg 18%
    08:00 +22°C° 0 mm 1 m/s 682 mmHg 16%
    09:00 +26°C° 0 mm 2 m/s 683 mmHg 14%
    10:00 +31°C° 0 mm 2 m/s 683 mmHg 11%
    11:00 +36°C° 0 mm 3 m/s 684 mmHg 8%
    12:00 +37°C° 0 mm 3 m/s 683 mmHg 8%
    13:00 +38°C° 0 mm 3 m/s 682 mmHg 8%
    14:00 +39°C° 0 mm 3 m/s 681 mmHg 8%
    15:00 +39°C° 0 mm 2 m/s 681 mmHg 8%
    16:00 +38°C° 0 mm 2 m/s 681 mmHg 8%
    17:00 +37°C° 0 mm 1 m/s 680 mmHg 8%
    18:00 +34°C° 0 mm 1 m/s 680 mmHg 11%
    19:00 +31°C° 0 mm 1 m/s 680 mmHg 13%
    20:00 +25°C° 0 mm 0 m/s 679 mmHg 15%
    21:00 +27°C° 0 mm 1 m/s 680 mmHg 16%
    22:00 +26°C° 0 mm 1 m/s 680 mmHg 16%
    23:00 +26°C° 0 mm 2 m/s 680 mmHg 17%

    30 Août, Vendredi

    Heure Température Précipitation Vent Pression Humidité
    00:00 +25°C° 0 mm 2 m/s 680 mmHg 19%
    01:00 +24°C° 0 mm 2 m/s 679 mmHg 21%
    02:00 +23°C° 0 mm 2 m/s 679 mmHg 23%
    03:00 +21°C° 0 mm 2 m/s 679 mmHg 27%
    04:00 +20°C° 0 mm 2 m/s 679 mmHg 31%
    05:00 +20°C° 0 mm 1 m/s 678 mmHg 34%
    06:00 +20°C° 0 mm 2 m/s 679 mmHg 33%
    07:00 +21°C° 0 mm 2 m/s 680 mmHg 32%
    08:00 +23°C° 0 mm 2 m/s 681 mmHg 30%
    09:00 +26°C° 0 mm 3 m/s 681 mmHg 26%
    10:00 +29°C° 0 mm 3 m/s 682 mmHg 22%
    11:00 +34°C° 0 mm 4 m/s 682 mmHg 18%
    12:00 +35°C° 0 mm 4 m/s 682 mmHg 16%
    13:00 +37°C° 0 mm 3 m/s 681 mmHg 14%
    14:00 +38°C° 0 mm 3 m/s 680 mmHg 12%
    15:00 +38°C° 0 mm 3 m/s 680 mmHg 12%
    16:00 +38°C° 0 mm 2 m/s 679 mmHg 12%
    17:00 +37°C° 0 mm 1 m/s 679 mmHg 11%
    18:00 +34°C° 0 mm 1 m/s 679 mmHg 14%
    19:00 +31°C° 0 mm 1 m/s 679 mmHg 17%
    20:00 +25°C° 0 mm 0 m/s 678 mmHg 20%
    21:00 +27°C° 0 mm 1 m/s 678 mmHg 21%
    22:00 +26°C° 0 mm 1 m/s 678 mmHg 21%
    23:00 +26°C° 0 mm 1 m/s 678 mmHg 22%

    31 Août, Samedi

    Heure Température Précipitation Vent Pression Humidité
    00:00 +25°C° 0 mm 1 m/s 678 mmHg 23%
    01:00 +24°C° 0 mm 1 m/s 678 mmHg 25%
    02:00 +23°C° 0 mm 1 m/s 678 mmHg 26%
    03:00 +23°C° 0 mm 2 m/s 678 mmHg 26%
    04:00 +21°C° 0 mm 3 m/s 679 mmHg 26%
    05:00 +21°C° 0 mm 3 m/s 679 mmHg 26%
    06:00 +21°C° 0 mm 4 m/s 680 mmHg 21%
    07:00 +21°C° 0 mm 4 m/s 681 mmHg 17%
    08:00 +21°C° 0 mm 5 m/s 681 mmHg 12%
    09:00 +25°C° 0 mm 5 m/s 682 mmHg 10%
    10:00 +28°C° 0 mm 5 m/s 682 mmHg 9%
    11:00 +32°C° 0 mm 4 m/s 683 mmHg 7%
    12:00 +34°C° 0 mm 4 m/s 682 mmHg 7%
    13:00 +35°C° 0 mm 4 m/s 682 mmHg 7%
    14:00 +36°C° 0 mm 3 m/s 681 mmHg 8%
    15:00 +36°C° 0 mm 4 m/s 681 mmHg 7%
    16:00 +36°C° 0 mm 4 m/s 681 mmHg 7%
    17:00 +35°C° 0 mm 4 m/s 680 mmHg 7%
    18:00 +32°C° 0 mm 4 m/s 680 mmHg 8%
    19:00 +28°C° 0 mm 4 m/s 680 mmHg 8%
    20:00 +25°C° 0 mm 4 m/s 680 mmHg 9%
    21:00 +23°C° 0 mm 4 m/s 681 mmHg 8%
    22:00 +22°C° 0 mm 4 m/s 681 mmHg 8%
    23:00 +22°C° 0 mm 4 m/s 681 mmHg 8%
    Voir plus